www.pogodaiklimat.ru

Погода и климат >> Архив погоды >> Новая Зеландия >> Мокохинау


ПОГОДА на Мокохинау

  • Прогноз погоды на Мокохинау
  • Монитор погоды на Мокохинау

АРХИВ ПОГОДЫ на Мокохинау

Время (UTC), дата Ветер
(напр.,м/с)
 
Видим.   Явления Облачность Т
(С)
Тd
(С)
f
(%)
Тe
(С)
Тes
(С)
Комфортность P
(гПа)
Po
(гПа)
Тmin
(С)
Tmax
(С)
R
(мм)
R24
(мм)
S
(см)
15 12.08 З 17 н/о н/о +13.0 +9.6 80 +9 +9 1001.0 992.8
18 12.08 З 13 н/о н/о +13.2 +9.9 80 +10 +10 1004.1 995.8
21 12.08 З 13 н/о н/о +13.6 +9.9 78 +10 +10 1006.9 998.6
00 13.08 З 14 н/о н/о +15.0 +10.2 73 +12 +12 1007.3 999.1 +12.1 2
03 13.08 З 13 н/о н/о +14.0 +9.6 75 +11 +11 1007.0 998.7
06 13.08 З 15 н/о н/о +13.5 +8.2 70 +10 +10 1007.8 999.5
09 13.08 З 16 н/о н/о +12.6 +7.9 73 +8 +8 1008.8 1000.5
12 13.08 З 13 н/о н/о +11.7 +8.3 80 +7 +7 1010.5 1002.1 +15.3 0.6
15 13.08 З 14 н/о н/о +12.5 +9.0 79 +8 +8 1010.9 1002.6
18 13.08 З 12 н/о н/о +12.1 +9.5 84 +8 +8 1012.6 1004.2 0.6
21 13.08 З 12 н/о н/о +13.2 +7.6 69 +10 +10 1014.7 1006.3
00 14.08 З 10 н/о н/о +14.6 +8.3 66 +12 +12 1014.6 1006.3 +11.2 1
03 14.08 З 12 н/о н/о +13.9 +9.7 76 +11 +11 1014.0 1005.7
06 14.08 ЮЗ 8 н/о н/о +12.6 +8.7 77 +10 +10 1014.7 1006.3
09 14.08 ЮЗ 6 н/о н/о +12.1 +8.5 79 +10 +10 1016.4 1008.0
12 14.08 ЮЗ 5 н/о н/о +11.8 +8.6 81 +9 +9 1018.0 1009.6 +14.7
15 14.08 ЮЗ 6 н/о н/о +11.6 +8.9 83 +9 +9 1017.6 1009.2
18 14.08 ЮЗ 4 н/о н/о +11.4 +8.1 80 +9 +9 1018.4 1010.0
21 14.08 ЮЗ 6 н/о н/о +12.0 +8.3 78 +9 +9 1019.6 1011.2
00 15.08 ЮЗ 5 н/о н/о +12.3 +8.2 76 +10 +10 1019.5 1011.1 +11.2
03 15.08 З 3 н/о н/о +11.8 +9.1 84 +10 +10 1018.5 1010.1
06 15.08 ЮЗ 3 н/о н/о +11.8 +8.6 81 +10 +10 1018.6 1010.2
09 15.08 ЮЗ 4 н/о н/о +11.9 +7.7 75 +10 +10 1019.5 1011.1
12 15.08 ЮЗ 4 н/о н/о +11.8 +7.0 72 +10 +10 1019.6 1011.2 +13.5
15 15.08 З 3 н/о н/о +11.3 +6.9 74 +10 +10 1018.9 1010.5
18 15.08 З 8 н/о н/о +11.5 +8.2 80 +8 +8 1018.2 1009.8
21 15.08 З 8 н/о н/о +11.5 +7.8 78 +8 +8 1019.3 1010.9
00 16.08 З 8 н/о н/о +11.7 +8.7 82 +8 +8 1018.5 1010.1 +10.7
03 16.08 З 8 н/о н/о +12.9 +8.0 72 +10 +10 1016.7 1008.3
06 16.08 З 9 н/о н/о +13.1 +4.7 57 +10 +10 1016.6 1008.2
09 16.08 З 9 н/о н/о +12.8 +6.4 65 +10 +10 1017.3 1008.9
12 16.08 З 11 н/о н/о +12.8 +7.3 69 +9 +9 1016.5 1008.1 +13.9
15 16.08 З 9 н/о н/о +11.6 +9.1 85 +8 +8 1015.5 1007.1
18 16.08 З 8 н/о н/о +11.6 +9.0 84 +8 +8 1015.2 1006.8
21 16.08 З 10 н/о н/о +12.7 +9.9 83 +9 +9 1015.4 1007.0
00 17.08 З 8 н/о н/о +13.8 +10.3 79 +11 +11 1014.3 1006.0 +11.2
03 17.08 З 9 н/о н/о +14.5 +11.1 80 +12 +12 1012.9 1004.6
06 17.08 З 8 н/о н/о +14.5 +11.4 82 +12 +12 1012.3 1004.0
09 17.08 З 8 н/о н/о +14.1 +10.9 81 +12 +12 1013.1 1004.8
12 17.08 З 6 н/о н/о +13.6 +10.8 83 +11 +11 1012.7 1004.4 +15.2
15 17.08 З 5 н/о н/о +12.5 +11.4 93 +10 +10 1012.8 1004.4
18 17.08 ЮВ 4 н/о н/о +12.5 +10.7 89 +11 +11 1013.4 1005.0 1
21 17.08 ЮВ 15 н/о н/о +12.0 +9.1 82 +7 +7 1015.1 1006.7
00 18.08 ЮВ 20 н/о н/о +11.0 +9.9 93 +5 +5 1016.1 1007.7 +10.9 2
03 18.08 В 19 н/о н/о +11.5 +8.6 82 +6 +6 1016.0 1007.6
06 18.08 В 17 н/о н/о +11.6 +7.7 77 +7 +7 1018.0 1009.6 0.2
09 18.08 ЮВ 15 н/о н/о +10.9 +8.3 84 +6 +6 1020.9 1012.4
12 18.08 В 17 н/о н/о +10.8 +7.5 80 +6 +6 1022.0 1013.5 +13.6 0.4
15 18.08 В 18 н/о н/о +11.6 +6.3 70 +7 +7 1021.6 1013.1
18 18.08 В 17 н/о н/о +11.3 +5.7 68 +6 +6 1021.7 1013.2
21 18.08 В 18 н/о н/о +12.2 +5.3 63 +8 +8 1023.4 1014.9
00 19.08 В 15 н/о н/о +12.9 +6.2 64 +9 +9 1023.3 1014.9 +10.0 0.6
03 19.08 В 11 н/о н/о +12.1 +5.6 64 +9 +9 1021.8 1013.4
06 19.08 В 13 н/о н/о +12.0 +6.6 70 +8 +8 1021.4 1013.0
09 19.08 В 9 н/о н/о +12.9 +4.3 56 +10 +10 1021.9 1013.5
12 19.08 В 8 н/о н/о +11.7 +5.5 66 +8 +8 1021.7 1013.2 +13.6

 

Местоположение метеостанции Мокохинау (Новая Зеландия): широта -35.90 долгота 175.10 высота над уровнем моря 60 м.

В архиве по умолчанию представлена погода на Мокохинау за последнюю неделю. Архивные данные за месяц целиком и за предыдущие месяцы, начиная с января 2011 года, Вы можете получить, выбрав интересующий диапазон дат из раскрывающегося списка и нажав кнопку "Ввод!".


*Определитесь, кто Вы:
робот инопланетянин человек

Внимание! Время в таблицах - всемирное. Для получения местного времени необходимо прибавить поправку, которая равна 12 ч.

Смотрите также архив погоды в соседних городах и на ближайших метеорологических станциях:

Погода в Окленде (Новая Зеландия) (125 км)
Погода на Пуперуа (Новая Зеландия) (132 км)
Погода в Тауранге (Новая Зеландия) (219 км)
Погода в Тахароа (Новая Зеландия) (255 км)
Погода на Мысе Реинга (Новая Зеландия) (274 км)
Погода на Таупо (Новая Зеландия) (326 км)
Погода в Хикс-Бей (Новая Зеландия) (339 км)
Погода в Нью-Плимуте (Новая Зеландия) (355 км)
Погода на Уэйауру (Новая Зеландия) (396 км)
Погода в Гисборне (Новая Зеландия) (398 км)

Пояснения к столбцам:

Ветер - указаны скорость ветра в м/с - средняя за 10 мин, порывы в срок и между сроками (в фигурных скобках) и направление, откуда дует ветер: С - северный, СВ - северо-восточный, В - восточный, ЮВ - юго-восточный, Ю - южный, ЮЗ - юго-западный, З - западный, СЗ - северо-западный.
Видимость - горизонтальная дальность видимости в метрах или километрах. При видимости от 1 до 10 км при отсутствии осадков обычно наблюдается дымка, при ухудшении видимости до 1 км и менее - туман. В сухую погоду видимость может ухудшаться дымом, пылью или мглою.
Явления - указаны атмосферные явления, наблюдавшиеся в срок или в последний час перед сроком; фигурными скобками обозначены явления, наблюдавшиеся между сроками (за 1-3 часа до срока); квадратными скобками обозначены град или гололедные отложения с указанием их диаметра в мм.
Облачность - указаны через наклонную черту общая и нижняя облачность в баллах и высота нижней границы облаков в метрах; квадратными скобками обозначены формы облаков: Ci - перистые, Cs - перисто-слоистые, Cc - перисто-кучевые, Ac - высококучевые, As - высокослоистые, Sc - слоисто-кучевые, Ns - слоисто-дождевые, Cu - кучевые, Cb - кучево-дождевые. Подробнее классификацию облаков см. в Атласе облаков (PDF).
T - Температура воздуха - температура, измеренная на высоте 2 м над землей.
Td - Температура точки росы - температура, при понижении до которой содержащийся в воздухе водяной пар достигнет насыщения.
f - Относительная влажность воздуха - влажноcть воздуха, измеренная на высоте 2 м над землей.
Te - Эффективная температура - температура, которую ощущает одетый по сезону человек в тени. Характеристика душности погоды. При расчете учитывается влияние влажности воздуха и скорости ветра на теплоощущения человека.
Tes - Эффективная температура на солнце - температура, которую ощущает человек, с поправкой на солнечный нагрев. Характеристика знойности погоды. Зависит от высоты солнца над горизонтом, облачности и скорости ветра. Ночью, в пасмурную погоду, а также при ветре 12 м/с и более поправка равна нулю.
P - Атмосферное давление - приведенное к уровню моря атмосферное давление.
Po - Атмосферное давление - измеренное на уровне метеостанции атмосферное давление.
Tmin - Минимальная температура - минимум температуры воздуха на высоте 2 м над землей.
Tmax - Максимальная температура - максимум температуры воздуха на высоте 2 м над землей.
R - Количество осадков - Количество выпавших осадков за период времени, мм. При наведении курсора мыши на число - период времени, за который выпало указанное количество осадков.
R24 - Количество осадков - Количество выпавших осадков за 24 часа, мм.
S - Снежный покров - Высота снежного покрова, см. При наведении курсора мыши на число - состояние снежного покрова и степень покрытия местности в баллах.